Вернуться в каталог

COSMOS 2251 DEB

АктивенLEO
NORAD 34037·DEBRIS·🇷🇺 Russia

Запущен Jun 16, 1993 с Plesetsk Cosmodrome

Loading…

Ближайшие Пролёты (ближайшие 24 часа)

TLE

СвежийSource: Space-Track

Эпоха: Sep 14, 2026, 17:20 UTC

1 34037U 93036HY  26257.72236097  .00000728  00000-0  25836-3 0  9990
2 34037  74.0479 264.9831 0055467 248.3586 111.1653 14.35353143916765

Отслеживайте COSMOS 2251 DEB в реальном времени с AllMySat

Download on the App Store